SAUDISAT 1C (SO-50) 1 27607U 02058C 25309.83351354 .00001845 00000+0 23988-3 0 9998 2 27607 64.5517 99.6443 0069930 303.4276 56.0154 14.82172765231346 SAUDISAT 2 1 28371U 04025F 25310.25593074 .00000550 00000+0 13437-3 0 9998 2 28371 98.5402 299.6558 0023568 261.3255 98.5272 14.56474055133295 SAUDISAT 3 1 31118U 07012B 25309.78939239 .00000487 00000+0 87083-4 0 9991 2 31118 98.1166 255.4620 0013827 213.9275 146.1049 14.71201511994900 PISAT 1 41784U 16059B 25310.29772085 .00001586 00000+0 28092-3 0 9999 2 41784 97.8170 315.4765 0028855 194.7981 165.2384 14.68356243487028 FLYING LAPTOP 1 42831U 17042G 25310.30596748 .00003920 00000+0 32293-3 0 9990 2 42831 97.4181 110.6242 0012051 167.0085 193.1451 14.99558527453036 SALSAT 1 46495U 20068K 25309.93906180 .00010376 00000+0 41329-3 0 9997 2 46495 97.8759 295.2570 0011288 14.8450 345.3116 15.25383650281278